Theta_e
322 310 311 312 305 301 296 300 306 305 309 314 317 314 312 314 310 304 326 326 328 332 339 340 342 343 343 342 342 341 340 340 339 337 336 335 333 331 330 329 328 328 328 327 327 326 325 323 323
315 309 310 305 298 295 294 299 299 304 314 315 313 313 312 310 319 321 322 325 328 330 338 338 339 341 341 340 340 339 338 337 336 335 334 332 331 329 328 327 326 326 325 325 325 324 323 321 320
306 307 304 297 294 293 294 296 297 306 314 309 310 314 313 311 320 319 323 325 326 325 329 333 337 338 338 337 337 336 335 334 333 332 332 330 328 327 326 325 324 323 323 323 323 321 320 319 319
305 303 299 291 289 291 292 293 295 300 305 311 311 307 316 321 319 321 323 324 322 322 323 327 331 333 334 334 333 332 331 331 330 329 328 327 325 323 322 321 321 321 321 321 320 319 319 318 318
301 299 292 289 290 292 293 293 296 298 302 302 309 305 310 320 321 322 321 322 321 320 321 321 325 325 326 326 325 325 325 325 324 322 321 320 318 318 317 315 316 317 318 318 318 318 318 317 318
298 297 290 287 289 291 292 291 296 297 299 300 307 307 311 320 318 319 321 320 321 319 318 318 317 318 318 318 317 317 316 316 315 315 315 315 315 315 315 314 313 315 316 317 317 317 317 317 316
294 291 288 287 288 289 290 291 293 296 297 300 305 303 312 317 318 319 319 319 318 319 317 315 314 313 314 314 314 313 313 312 312 312 311 310 310 311 310 310 311 314 315 315 314 314 314 314 313
293 291 287 286 287 287 290 292 292 296 299 307 310 303 304 316 319 320 319 319 317 316 315 313 312 311 310 310 310 310 311 311 311 310 310 308 307 307 307 308 310 312 312 312 312 312 312 311 309
296 288 285 286 287 287 290 290 292 301 305 307 310 311 316 319 320 313 312 307 307 309 310 310 310 308 309 308 306 306 306 307 307 307 307 305 304 303 305 306 308 310 309 309 309 310 309 307 302
291 286 287 288 287 287 289 289 289 292 294 301 305 311 314 308 306 303 302 302 302 302 303 303 303 303 304 306 306 305 304 303 303 303 303 303 303 302 303 301 303 304 304 305 307 307 306 301 299
290 287 289 289 291 290 289 289 289 289 290 293 297 306 306 302 301 301 300 300 300 300 301 301 301 302 302 303 304 304 303 303 303 302 302 302 302 301 301 300 300 300 300 299 299 299 299 299 298
288 290 290 292 291 290 289 289 286 286 289 296 307 305 300 298 297 297 296 296 297 297 298 299 299 300 300 302 303 303 303 303 302 302 302 302 301 301 301 300 300 300 299 299 299 299 299 299 298
289 289 291 291 290 289 289 286 286 285 288 302 300 298 297 296 295 295 295 295 295 295 296 296 297 297 298 299 300 301 301 301 301 301 301 301 300 300 300 300 300 300 300 300 299 299 298 298 298
290 290 289 289 288 288 287 286 287 286 288 297 296 294 293 292 292 292 292 292 292 293 293 295 294 294 295 296 297 297 298 298 299 298 298 298 299 299 298 298 299 300 300 300 299 299 298 298 298
290 288 288 287 286 287 287 286 284 286 289 295 293 291 291 291 291 289 290 289 289 290 291 291 290 291 291 292 294 295 295 295 295 295 295 295 297 295 295 296 296 297 298 298 299 299 299 298 298
287 286 283 287 285 287 288 284 284 286 297 295 292 290 289 288 287 287 287 287 287 287 287 288 288 287 288 289 290 292 291 293 292 293 291 292 293 291 291 293 293 296 296 296 296 297 297 298 297
284 280 283 285 285 284 285 284 284 286 296 290 289 288 288 286 285 286 286 285 285 285 285 286 286 286 286 287 287 289 288 290 289 291 288 289 289 288 289 290 292 292 293 294 294 295 295 295 296
281 281 283 282 283 281 280 280 281 284 287 287 287 286 285 284 283 285 285 285 284 284 285 284 285 285 285 286 285 286 286 287 287 289 287 288 288 287 288 288 288 289 290 291 292 292 294 294 294
281 282 278 279 282 280 279 278 280 282 283 283 284 284 283 282 284 284 284 283 283 283 283 283 283 284 284 284 283 283 283 284 285 286 286 286 286 286 286 286 286 287 287 288 289 291 291 292 294
279 278 277 279 281 280 278 279 281 280 281 282 283 282 282 281 282 282 282 282 281 281 282 283 283 283 284 284 283 283 283 284 284 285 285 285 285 286 285 285 285 285 286 285 286 287 288 290 292
278 278 276 277 279 278 275 278 278 280 281 280 281 282 281 281 280 281 281 280 281 280 281 282 282 283 283 283 283 283 283 283 282 283 283 284 284 285 285 284 284 284 285 284 284 285 285 285 287
279 280 280 279 276 273 276 274 277 277 277 278 280 278 279 279 280 281 280 280 280 281 281 281 282 282 283 283 282 280 279 278 281 281 283 283 284 284 284 284 284 283 284 283 283 284 283 284 283
278 280 279 278 273 273 274 270 276 276 276 277 278 278 278 278 279 279 280 280 281 281 280 281 282 282 282 282 281 280 279 280 281 281 281 281 282 283 282 283 282 282 283 283 283 282 282 283 282
281 278 277 275 272 269 266 269 276 277 278 278 278 278 279 278 278 279 279 280 280 280 280 280 281 281 282 281 281 280 279 279 279 279 280 280 281 281 281 281 281 281 281 281 282 282 281 281 282
279 274 270 271 269 272 260 268 277 279 278 278 278 278 278 278 277 278 277 278 279 280 280 280 281 280 280 280 280 280 279 279 279 279 279 279 279 280 280 280 280 280 280 281 281 280 280 280 280
277 273 271 266 268 270 261 269 278 278 277 278 278 278 278 277 278 278 278 278 278 279 280 279 279 279 279 279 279 280 279 279 279 279 279 279 279 279 280 280 280 279 280 280 280 280 280 281 281
276 271 274 264 255 262 269 274 279 278 276 277 277 277 277 277 277 277 278 278 278 278 279 278 278 278 278 278 279 278 279 279 278 279 279 279 279 279 279 279 278 278 279 279 279 279 279 280 281
276 277 271 269 266 266 268 264 276 275 274 274 276 276 277 278 278 278 278 278 279 279 278 277 277 277 277 278 278 278 278 279 279 279 278 278 279 278 278 277 277 277 277 278 278 278 279 279 280
272 270 271 271 270 266 264 271 275 273 270 271 272 277 274 275 277 277 276 276 278 277 276 276 276 276 276 277 277 277 277 278 278 278 278 278 278 277 277 276 276 276 276 276 276 277 277 278 280
276 273 275 271 267 266 267 271 275 269 265 264 272 275 275 269 273 272 274 275 275 274 274 275 275 275 276 276 276 276 276 276 276 276 276 277 277 277 276 276 275 274 274 275 275 275 275 276 277
Wind_Speed
9 7 2 5 5 5 3 2 1 2 4 4 3 5 10 6 5 3 6 13 15 13 11 10 13 17 15 16 17 16 16 16 17 15 15 15 15 13 13 13 13 13 13 13 13 13 13 12 12
4 5 4 3 5 4 1 4 4 2 5 6 6 3 6 5 4 3 6 14 11 10 11 13 17 21 19 18 19 17 15 15 15 13 14 13 14 14 13 12 12 13 13 13 13 13 14 14 13
3 4 5 5 3 4 4 1 2 2 2 1 4 5 3 4 3 3 7 9 9 13 14 17 21 21 21 21 20 18 17 15 14 14 13 14 13 12 12 13 13 13 13 13 13 13 13 13 13
4 5 5 7 4 2 2 2 2 3 2 7 4 7 4 5 3 6 7 7 11 12 12 18 23 22 21 20 18 17 16 16 15 14 14 13 12 13 13 13 13 13 13 13 13 13 12 12 12
4 4 6 5 2 2 2 2 4 4 3 5 2 4 4 4 5 7 8 10 10 11 10 12 19 18 19 19 18 17 16 16 15 14 13 13 13 13 13 13 14 14 14 14 14 14 13 13 13
5 3 6 3 2 3 3 5 3 4 5 4 5 4 4 5 8 7 7 8 6 8 8 9 12 17 17 17 16 15 14 14 13 12 13 13 13 13 12 13 13 13 14 14 14 14 14 13 13
7 5 3 3 2 4 5 7 4 2 4 6 3 4 3 7 5 5 5 5 7 9 8 9 10 10 13 14 14 12 12 12 11 10 10 11 10 11 11 11 11 12 13 12 12 12 13 13 13
5 6 4 3 1 2 5 2 1 6 4 3 1 3 2 1 1 2 4 7 10 10 10 10 8 7 6 6 11 10 11 12 12 11 11 10 9 10 10 10 11 12 12 12 12 12 12 12 12
2 7 3 2 2 1 4 2 4 2 6 5 4 3 4 1 2 9 8 10 8 9 11 10 10 11 10 7 8 10 11 11 11 10 12 9 6 8 9 11 12 13 12 12 12 11 11 10 9
7 5 2 1 1 1 3 4 2 4 3 4 4 6 7 11 9 11 11 10 13 14 13 11 11 11 9 8 8 7 7 6 7 7 8 6 6 6 8 8 11 11 12 12 13 13 12 9 5
5 5 4 1 2 2 1 4 4 4 5 3 1 4 4 8 10 10 11 12 11 10 10 12 13 11 12 9 7 5 4 4 5 8 8 7 6 6 6 5 5 6 8 5 8 7 5 7 6
9 5 2 2 5 1 2 3 6 6 3 7 3 7 6 11 11 10 10 10 10 10 12 12 12 11 11 6 7 7 6 5 5 6 9 7 5 6 7 5 7 6 4 7 6 4 7 8 8
7 3 5 2 6 5 6 5 7 4 7 1 8 11 9 9 9 9 8 8 9 11 11 13 13 12 11 10 8 8 8 7 8 8 10 8 8 8 7 7 7 7 7 7 7 7 7 8 8
3 6 3 5 7 5 3 2 3 2 5 5 8 9 9 10 8 6 8 9 10 10 11 10 12 12 10 9 10 8 8 8 8 9 10 12 9 9 9 9 9 9 8 8 7 8 8 8 9
4 5 3 9 7 2 1 2 2 4 6 8 8 9 8 9 7 8 8 8 8 8 9 11 10 11 10 9 8 7 7 8 8 8 11 13 11 12 12 9 9 10 10 12 10 10 9 9 9
6 6 4 3 8 1 1 8 5 3 12 11 9 7 7 7 8 8 8 7 7 7 9 9 9 11 11 10 8 7 7 6 7 8 9 13 13 14 12 9 10 11 10 10 10 10 10 10 10
8 2 2 6 4 5 2 7 3 2 10 5 5 7 6 6 6 5 5 5 6 6 8 9 10 12 11 10 8 7 8 7 7 8 8 13 12 14 11 9 10 12 9 9 10 10 11 11 11
2 0 3 5 5 6 5 11 4 1 3 4 5 5 5 5 3 3 4 5 6 7 7 8 8 11 11 7 7 5 6 7 7 7 8 12 10 14 11 10 11 11 9 10 10 13 11 11 11
1 1 3 4 1 5 5 9 9 7 5 6 5 6 6 6 3 2 3 5 6 8 9 10 10 11 9 7 8 6 8 7 8 7 10 9 11 12 12 10 11 11 10 12 13 12 15 11 10
3 1 4 7 2 3 7 20 13 10 7 8 11 8 7 4 4 1 3 5 5 4 5 6 7 8 7 6 5 3 8 4 8 7 10 10 12 12 11 12 11 12 10 13 12 13 12 11 10
1 0 2 5 9 1 8 10 3 3 2 4 3 3 3 5 4 2 1 1 3 4 6 6 7 7 6 8 6 6 5 5 5 9 9 11 14 13 13 13 11 12 11 10 12 12 15 13 11
3 2 2 4 5 4 5 8 6 1 5 6 6 7 6 6 4 3 3 2 3 4 4 5 6 7 8 7 7 9 7 9 8 9 9 10 13 13 14 14 13 13 10 12 11 11 12 13 14
1 2 1 3 3 3 4 3 10 3 6 8 10 9 10 8 7 7 5 4 3 3 4 5 5 6 6 7 7 7 9 8 9 9 12 12 10 12 13 14 14 13 10 12 14 14 13 10 12
2 1 4 3 3 4 3 3 7 4 5 3 2 9 11 9 7 7 5 4 4 3 4 5 6 7 7 7 9 9 11 12 11 11 10 9 9 9 12 13 13 14 13 14 13 15 16 14 14
6 6 6 8 7 6 1 2 14 3 5 3 5 7 10 7 7 7 6 5 4 5 6 7 7 9 9 10 10 11 12 13 13 14 10 14 10 9 12 14 14 12 14 14 15 15 15 15 14
3 5 7 5 4 7 2 8 7 3 2 4 5 6 6 8 8 6 6 5 5 5 6 7 9 10 10 10 12 11 12 8 9 11 11 10 10 11 14 13 14 16 16 14 13 12 12 14 14
1 5 3 7 2 4 3 9 12 2 6 5 6 3 8 8 7 6 6 5 5 5 6 7 9 10 11 12 11 11 11 12 12 14 13 10 13 11 14 15 16 16 16 16 15 12 14 14 15
4 3 5 4 6 9 6 7 9 7 6 4 7 8 9 7 6 5 4 4 3 4 5 7 8 10 11 11 10 10 12 12 13 12 14 15 13 15 15 16 16 16 16 16 16 14 14 15 13
3 3 6 3 4 5 7 9 9 8 5 5 7 8 7 7 4 3 4 5 4 5 5 7 8 10 11 12 12 12 12 13 13 13 14 14 15 14 15 15 16 16 16 16 15 16 17 17 16
1 4 4 6 7 4 1 17 1 4 4 3 8 7 6 1 3 4 5 5 5 6 6 8 9 10 11 11 12 13 13 14 14 14 15 15 15 15 15 15 16 16 16 16 16 17 17 16 17
Wind_Direction
335 320 347 40 64 64 48 24 262 47 53 4 7 67 100 42 44 83 330 7 345 337 15 23 47 59 56 60 61 62 56 50 46 38 36 37 29 30 27 25 18 20 17 17 18 13 14 15 12
335 345 43 77 81 79 8 323 47 19 127 143 61 353 55 72 27 70 356 350 351 359 30 39 47 56 53 50 53 49 47 51 48 39 33 28 31 20 25 20 18 19 14 14 12 11 8 8 5
338 31 72 78 88 102 135 327 350 61 122 196 100 55 41 14 55 28 344 353 11 26 29 37 44 50 50 44 44 45 40 43 40 35 33 31 26 22 17 15 14 15 10 7 10 8 5 2 1
27 17 43 73 80 74 72 328 297 190 58 44 110 67 75 48 25 359 358 18 40 35 33 41 40 39 43 47 45 41 39 36 36 33 29 28 24 15 15 12 8 7 5 3 4 3 359 357 356
34 54 61 82 52 86 54 326 297 56 81 22 24 99 72 55 60 31 29 38 35 46 33 39 44 39 39 45 38 36 32 33 30 31 26 21 17 14 14 10 5 2 0 359 358 356 353 352 352
48 83 63 93 67 347 38 7 349 42 24 27 65 79 73 46 38 26 41 48 41 54 40 41 38 38 38 38 37 31 30 30 25 19 21 14 6 2 6 5 359 356 355 354 353 351 348 349 351
100 72 112 108 111 36 340 325 48 61 22 26 329 79 81 51 44 45 49 50 43 47 45 41 34 32 29 29 26 21 22 21 18 15 16 11 9 7 0 357 351 348 347 348 348 344 346 346 346
94 90 83 32 93 49 329 24 340 51 60 305 333 74 110 87 48 58 52 43 46 44 41 35 28 26 31 24 17 13 12 13 10 7 7 4 2 358 349 348 342 342 344 341 340 338 342 343 343
93 65 71 48 94 239 336 79 5 84 87 48 44 60 52 52 10 48 53 42 45 34 34 22 18 14 8 11 2 6 6 5 3 359 356 354 352 348 341 340 338 338 337 333 333 335 336 337 332
59 77 94 252 220 92 358 76 317 73 49 61 72 58 41 47 56 52 37 26 28 20 19 18 14 12 8 10 2 2 359 1 0 0 357 355 348 341 342 336 337 339 334 335 333 334 333 331 324
26 109 162 7 316 215 103 61 29 133 42 47 268 100 57 49 46 48 48 36 30 23 21 16 11 9 15 7 1 3 0 3 6 8 4 353 349 348 348 339 339 337 335 332 331 328 326 322 322
94 41 129 346 356 154 72 94 64 49 310 285 98 84 82 62 51 42 42 31 28 22 19 12 12 14 12 7 16 11 16 12 14 8 8 3 357 349 342 334 329 322 326 318 316 312 308 308 306
78 143 58 58 36 51 70 59 142 48 344 97 103 75 75 78 65 53 49 37 29 27 15 13 13 12 6 12 8 11 12 13 9 15 13 8 3 356 343 339 330 324 324 318 317 312 308 307 301
100 85 74 38 9 51 88 52 156 266 329 126 104 96 81 74 62 54 43 33 27 21 16 7 17 11 9 12 10 12 12 10 20 18 12 11 6 1 353 342 338 332 332 319 311 304 303 301 296
135 76 37 20 337 62 285 231 201 267 230 150 120 114 94 73 59 48 39 39 22 20 13 19 19 9 13 9 11 11 12 16 18 13 11 9 10 2 353 344 340 338 332 325 317 307 299 293 292
50 52 22 321 351 276 127 254 203 300 181 181 144 117 101 71 56 45 39 40 27 25 22 17 13 10 7 4 359 4 7 12 14 13 7 7 8 1 351 343 339 336 330 330 325 320 310 302 297
14 145 317 308 57 315 61 267 180 339 202 179 139 135 120 98 68 52 48 43 32 25 21 19 13 11 0 355 352 353 360 9 8 10 6 2 2 357 352 341 335 333 329 329 328 322 315 306 301
237 25 289 270 342 348 292 268 240 269 190 190 160 152 149 131 121 74 46 33 31 24 18 17 11 9 2 356 350 354 3 356 0 5 359 357 354 350 346 341 338 334 330 328 325 318 312 304 298
130 180 269 259 41 323 253 272 255 199 185 199 191 187 182 171 158 95 53 33 22 25 19 15 11 5 6 4 358 353 352 335 347 352 345 345 345 342 338 339 332 332 330 326 323 317 316 312 309
48 3 290 280 18 350 352 291 262 180 201 188 195 201 193 187 181 101 38 29 27 12 7 7 7 1 6 5 353 331 325 322 324 339 335 339 337 333 330 330 326 328 321 324 325 322 316 309 311
40 175 319 260 331 69 324 285 280 222 168 205 213 205 203 202 203 209 348 332 331 358 354 350 351 350 354 355 345 340 324 326 329 336 329 332 329 324 325 323 319 319 318 317 320 321 319 310 307
295 78 316 299 23 286 17 282 306 302 258 234 215 211 208 210 212 213 232 287 328 319 321 337 340 346 352 341 346 351 336 326 322 315 315 318 320 319 323 321 320 318 315 310 309 314 312 308 305
294 339 278 79 104 15 349 69 272 14 285 245 218 209 213 212 208 218 223 235 263 307 315 323 322 318 321 333 337 331 323 314 312 307 313 314 313 314 313 313 314 314 311 307 305 307 303 297 294
19 64 44 67 104 21 243 106 279 237 212 280 257 209 206 211 219 228 230 243 267 300 318 325 331 333 332 326 318 314 316 317 317 319 315 311 311 311 309 311 311 308 306 306 306 303 299 296 290
38 42 340 354 5 233 42 8 250 280 232 231 274 238 208 204 217 228 232 245 272 311 334 340 335 326 324 322 322 321 318 315 315 316 311 314 314 313 309 311 307 305 303 301 303 302 299 297 292
47 121 142 275 284 281 17 242 257 192 281 266 279 272 199 209 226 228 238 251 272 307 326 326 328 322 324 325 322 315 309 310 308 305 307 305 307 304 305 303 305 302 301 301 297 297 290 288 289
311 41 143 95 93 28 262 290 288 265 278 260 258 224 228 226 227 236 258 271 286 287 307 320 323 323 323 321 314 313 306 304 304 303 300 299 300 301 304 305 304 302 299 296 292 287 286 285 285
103 164 32 9 337 310 278 269 248 298 283 273 255 252 246 234 236 248 275 298 303 310 312 316 320 316 311 313 314 312 307 302 300 301 299 299 298 300 302 304 304 304 302 299 296 292 287 286 282
22 12 44 116 140 207 294 251 210 225 227 225 263 262 269 248 237 285 318 323 322 323 319 316 318 319 320 320 315 310 309 309 305 302 302 299 299 298 298 301 304 304 303 302 299 293 294 293 293
314 203 155 125 263 234 195 277 70 222 235 237 276 285 297 281 284 317 324 327 334 321 319 323 322 320 321 315 312 313 314 315 311 308 308 304 299 297 295 300 301 304 302 301 298 297 297 293 293